When you browse on this site, cookies collect data to enhance your experience and personalize the content and advertising you see.
Visit our Privacy Policy to learn more. By continuing to use the site, you agree to this use of cookies and data.
  • In Austria
  • List of Countries
  • For 7 days
  • Water Temperature
  • Weather Map
  • News
  • Weather Widgets
  • user-avatar
    Login

    Hourly Weather Narino

    Today, 17 September, Tuesday

    Time Temperature Precipitation Wind Pressure Humidity
    00:00 +27°C° 1.4 mm 1 mps 738 mmHg 78%
    01:00 +25°C° 1.4 mm 0 mps 738 mmHg 82%
    02:00 +25°C° 1.4 mm 0 mps 737 mmHg 83%
    03:00 +24°C° 1.4 mm 0 mps 737 mmHg 84%
    04:00 +24°C° 1.4 mm 0 mps 737 mmHg 86%
    05:00 +24°C° 0.3 mm 0 mps 738 mmHg 84%
    06:00 +25°C° 0.3 mm 0 mps 738 mmHg 83%
    07:00 +25°C° 0.3 mm 0 mps 738 mmHg 81%
    08:00 +27°C° 0.5 mm 0 mps 738 mmHg 75%
    09:00 +30°C° 0.5 mm 1 mps 738 mmHg 68%
    10:00 +32°C° 0.5 mm 1 mps 738 mmHg 62%
    11:00 +33°C° 0.1 mm 1 mps 738 mmHg 56%
    12:00 +36°C° 0.1 mm 2 mps 737 mmHg 49%
    13:00 +37°C° 0.1 mm 2 mps 736 mmHg 42%
    14:00 +38°C° 0.1 mm 2 mps 736 mmHg 41%
    15:00 +38°C° 0.1 mm 2 mps 735 mmHg 39%
    16:00 +38°C° 0.1 mm 2 mps 735 mmHg 37%
    17:00 +36°C° 0.1 mm 2 mps 735 mmHg 43%
    18:00 +35°C° 0.1 mm 2 mps 736 mmHg 48%
    19:00 +32°C° 0.1 mm 2 mps 736 mmHg 54%
    20:00 +31°C° 0.9 mm 1 mps 737 mmHg 61%
    21:00 +30°C° 0.9 mm 1 mps 737 mmHg 69%
    22:00 +29°C° 0.9 mm 1 mps 738 mmHg 77%
    23:00 +28°C° 3.1 mm 1 mps 738 mmHg 82%

    Tomorrow, 18 September, Wednesday

    Time Temperature Precipitation Wind Pressure Humidity
    00:00 +27°C° 3.1 mm 1 mps 738 mmHg 87%
    01:00 +26°C° 3.1 mm 1 mps 737 mmHg 92%
    02:00 +26°C° 5 mm 1 mps 737 mmHg 92%
    03:00 +26°C° 5 mm 1 mps 737 mmHg 93%
    04:00 +25°C° 5 mm 1 mps 737 mmHg 94%
    05:00 +25°C° 0.9 mm 1 mps 737 mmHg 93%
    06:00 +26°C° 0.9 mm 1 mps 738 mmHg 92%
    07:00 +26°C° 0.9 mm 1 mps 738 mmHg 91%
    08:00 +26°C° 0.1 mm 1 mps 738 mmHg 86%
    09:00 +27°C° 0.1 mm 1 mps 738 mmHg 82%
    10:00 +28°C° 0.1 mm 1 mps 738 mmHg 78%
    11:00 +29°C° 0 mm 1 mps 738 mmHg 72%
    12:00 +31°C° 0 mm 1 mps 737 mmHg 66%
    13:00 +32°C° 0 mm 1 mps 736 mmHg 60%
    14:00 +32°C° 0 mm 1 mps 735 mmHg 59%
    15:00 +32°C° 0 mm 1 mps 735 mmHg 57%
    16:00 +33°C° 0 mm 1 mps 735 mmHg 55%
    17:00 +31°C° 0.1 mm 1 mps 735 mmHg 60%
    18:00 +30°C° 0.1 mm 1 mps 735 mmHg 65%
    19:00 +29°C° 0.1 mm 1 mps 736 mmHg 70%
    20:00 +28°C° 0.2 mm 1 mps 736 mmHg 72%
    21:00 +28°C° 0.2 mm 1 mps 737 mmHg 73%
    22:00 +28°C° 0.2 mm 1 mps 737 mmHg 75%
    23:00 +27°C° 0.1 mm 1 mps 737 mmHg 77%

    Day after tomorrow, 19 September, Thursday

    Time Temperature Precipitation Wind Pressure Humidity
    00:00 +27°C° 0.1 mm 1 mps 737 mmHg 80%
    01:00 +27°C° 0.1 mm 1 mps 737 mmHg 82%
    02:00 +27°C° 0 mm 1 mps 737 mmHg 83%
    03:00 +26°C° 0 mm 1 mps 736 mmHg 83%
    04:00 +26°C° 0 mm 1 mps 736 mmHg 83%
    05:00 +26°C° 0.1 mm 1 mps 737 mmHg 83%
    06:00 +26°C° 0.1 mm 1 mps 737 mmHg 84%
    07:00 +26°C° 0.1 mm 1 mps 738 mmHg 84%
    08:00 +27°C° 0.1 mm 1 mps 738 mmHg 80%
    09:00 +28°C° 0.1 mm 2 mps 738 mmHg 76%
    10:00 +29°C° 0.1 mm 2 mps 738 mmHg 72%
    11:00 +31°C° 0.1 mm 2 mps 737 mmHg 66%
    12:00 +32°C° 0.1 mm 2 mps 736 mmHg 61%
    13:00 +34°C° 0.1 mm 2 mps 736 mmHg 55%
    14:00 +34°C° 0.1 mm 2 mps 735 mmHg 55%
    15:00 +34°C° 0.1 mm 2 mps 735 mmHg 55%
    16:00 +34°C° 0.1 mm 2 mps 735 mmHg 54%
    17:00 +32°C° 0.3 mm 2 mps 735 mmHg 61%
    18:00 +30°C° 0.3 mm 2 mps 735 mmHg 67%
    19:00 +29°C° 0.3 mm 2 mps 736 mmHg 74%
    20:00 +29°C° 0.3 mm 2 mps 736 mmHg 75%
    21:00 +28°C° 0.3 mm 2 mps 737 mmHg 77%
    22:00 +28°C° 0.3 mm 1 mps 737 mmHg 79%
    23:00 +27°C° 0.3 mm 1 mps 737 mmHg 81%

    20 September, Friday

    Time Temperature Precipitation Wind Pressure Humidity
    00:00 +27°C° 0.3 mm 1 mps 737 mmHg 83%
    01:00 +27°C° 0.3 mm 1 mps 737 mmHg 85%
    02:00 +26°C° 0.5 mm 1 mps 737 mmHg 85%
    03:00 +26°C° 0.5 mm 1 mps 737 mmHg 86%
    04:00 +26°C° 0.5 mm 1 mps 737 mmHg 87%
    05:00 +26°C° 0.2 mm 1 mps 738 mmHg 87%
    06:00 +26°C° 0.2 mm 1 mps 738 mmHg 87%
    07:00 +26°C° 0.2 mm 1 mps 739 mmHg 86%
    08:00 +27°C° 0.3 mm 1 mps 739 mmHg 81%
    09:00 +29°C° 0.3 mm 2 mps 739 mmHg 75%
    10:00 +30°C° 0.3 mm 2 mps 739 mmHg 69%
    11:00 +30°C° 1.2 mm 2 mps 739 mmHg 67%
    12:00 +31°C° 1.2 mm 2 mps 738 mmHg 66%
    13:00 +32°C° 1.2 mm 2 mps 737 mmHg 64%
    14:00 +31°C° 1 mm 1 mps 737 mmHg 67%
    15:00 +30°C° 1 mm 1 mps 736 mmHg 70%
    16:00 +30°C° 1 mm 1 mps 736 mmHg 74%
    17:00 +29°C° 0.2 mm 1 mps 736 mmHg 76%
    18:00 +26°C° 0.2 mm 0 mps 737 mmHg 79%
    19:00 +26°C° 0.2 mm 0 mps 737 mmHg 81%
    20:00 +25°C° 0.2 mm 0 mps 738 mmHg 82%
    21:00 +25°C° 0.2 mm 0 mps 738 mmHg 82%
    22:00 +25°C° 0.2 mm 0 mps 739 mmHg 83%
    23:00 +25°C° 0 mm 0 mps 739 mmHg 83%

    21 September, Saturday

    Time Temperature Precipitation Wind Pressure Humidity
    00:00 +24°C° 0 mm 0 mps 738 mmHg 83%
    01:00 +24°C° 0 mm 0 mps 738 mmHg 83%
    02:00 +24°C° 0 mm 0 mps 738 mmHg 83%
    03:00 +23°C° 0 mm 0 mps 738 mmHg 83%
    04:00 +23°C° 0 mm 0 mps 738 mmHg 83%
    05:00 +24°C° 0 mm 0 mps 738 mmHg 81%
    06:00 +24°C° 0 mm 0 mps 739 mmHg 79%
    07:00 +25°C° 0 mm 0 mps 739 mmHg 77%
    08:00 +26°C° 0 mm 0 mps 739 mmHg 72%
    09:00 +30°C° 0 mm 1 mps 739 mmHg 67%
    10:00 +31°C° 0 mm 1 mps 739 mmHg 62%
    11:00 +33°C° 0 mm 1 mps 738 mmHg 57%
    12:00 +34°C° 0 mm 1 mps 737 mmHg 53%
    13:00 +36°C° 0 mm 2 mps 736 mmHg 48%
    14:00 +36°C° 0.1 mm 2 mps 736 mmHg 47%
    15:00 +36°C° 0.1 mm 2 mps 735 mmHg 45%
    16:00 +37°C° 0.1 mm 2 mps 735 mmHg 44%
    17:00 +35°C° 0.2 mm 2 mps 735 mmHg 49%
    18:00 +34°C° 0.2 mm 2 mps 736 mmHg 54%
    19:00 +31°C° 0.2 mm 2 mps 736 mmHg 59%
    20:00 +30°C° 1 mm 2 mps 737 mmHg 65%
    21:00 +28°C° 1 mm 1 mps 737 mmHg 71%
    22:00 +27°C° 1 mm 1 mps 738 mmHg 78%
    23:00 +27°C° 1.4 mm 1 mps 738 mmHg 80%

    22 September, Sunday

    Time Temperature Precipitation Wind Pressure Humidity
    00:00 +26°C° 1.4 mm 1 mps 738 mmHg 83%
    01:00 +26°C° 1.4 mm 1 mps 737 mmHg 85%
    02:00 +26°C° 0.9 mm 1 mps 737 mmHg 86%
    03:00 +26°C° 0.9 mm 1 mps 737 mmHg 87%
    04:00 +23°C° 0.9 mm 0 mps 737 mmHg 89%
    05:00 +24°C° 0.6 mm 0 mps 738 mmHg 88%
    06:00 +24°C° 0.6 mm 0 mps 738 mmHg 86%
    07:00 +24°C° 0.6 mm 0 mps 739 mmHg 85%
    08:00 +26°C° 0.6 mm 0 mps 739 mmHg 80%
    09:00 +29°C° 0.6 mm 1 mps 739 mmHg 76%
    10:00 +30°C° 0.6 mm 1 mps 739 mmHg 71%
    11:00 +31°C° 0.3 mm 1 mps 738 mmHg 65%
    12:00 +33°C° 0.3 mm 1 mps 737 mmHg 60%
    13:00 +34°C° 0.3 mm 1 mps 736 mmHg 54%
    14:00 +34°C° 0 mm 1 mps 736 mmHg 53%
    15:00 +35°C° 0 mm 2 mps 736 mmHg 52%
    16:00 +35°C° 0 mm 2 mps 735 mmHg 51%
    17:00 +34°C° 0.2 mm 2 mps 736 mmHg 56%
    18:00 +31°C° 0.2 mm 1 mps 737 mmHg 62%
    19:00 +29°C° 0.2 mm 1 mps 737 mmHg 67%
    20:00 +28°C° 0.7 mm 1 mps 738 mmHg 71%
    21:00 +28°C° 0.7 mm 1 mps 738 mmHg 75%
    22:00 +27°C° 0.7 mm 1 mps 739 mmHg 79%
    23:00 +26°C° 0.9 mm 1 mps 739 mmHg 79%
    Show more